START_TIME,STEP,MOV.,M29,t_acc.,H22,t_acc.,H26,t_acc.,H30,t_acc.
1989-08-26T06:00:32.590 ,4,0,0.,24.0,0.,24.0,0.,24.0,0.,24.0
1989-08-26T06:00:56.590 ,3,1,0.,24.0,0.,24.0,0.,24.0,0.,24.0
1989-08-26T06:01:20.590 ,3,0,0.,24.0,0.,24.0,0.,24.0,0.,24.0
1989-08-26T06:01:44.590 ,2,1,0.,24.0,0.,24.0,0.,24.0,0.,24.0
1989-08-26T06:02:08.590 ,2,0,0.,24.0,0.,24.0,0.,24.0,0.,24.0
1989-08-26T06:02:32.590 ,1,1,0.,24.0,0.,24.0,0.,24.0,0.,24.0
1989-08-26T06:02:56.590 ,1,0,0.,24.0,0.,24.0,0.,24.0,0.,24.0
1989-08-26T06:03:20.590 ,0,1,0.,24.0,0.,24.0,0.,24.0,0.,24.0
1989-08-26T06:03:44.590 ,0,0,0.,24.0,0.,24.0,0.,24.0,0.,24.0
1989-08-26T06:04:08.590 ,0,1,0.,24.0,0.,24.0,0.,24.0,0.,24.0
1989-08-26T06:04:32.590 ,0,0,0.,24.0,0.,24.0,0.,24.0,0.,24.0
1989-08-26T06:04:56.590 ,1,1,0.,24.0,0.,24.0,0.,24.0,0.,24.0
1989-08-26T06:05:20.590 ,1,0,0.,24.0,0.,24.0,0.,24.0,0.,24.0
1989-08-26T06:05:44.590 ,2,1,0.,24.0,0.,24.0,0.,24.0,0.,24.0
1989-08-26T06:06:08.590 ,2,0,0.,24.0,0.,24.0,0.,24.0,0.,24.0
1989-08-26T06:06:32.590 ,3,1,0.,24.0,0.,24.0,0.,24.0,0.,24.0
1989-08-26T06:06:56.590 ,3,0,0.,24.0,0.,24.0,0.,24.0,0.,24.0
1989-08-26T06:07:20.590 ,4,1,0.,24.0,0.,24.0,0.,24.0,0.,24.0
1989-08-26T06:07:44.590 ,4,0,0.,24.0,0.,24.0,0.,24.0,0.,24.0
1989-08-26T06:08:08.590 ,5,1,0.,24.0,0.,24.0,0.,24.0,0.,24.0
1989-08-26T06:08:32.590 ,5,0,0.,24.0,0.,24.0,0.,24.0,0.,24.0
1989-08-26T06:08:56.590 ,6,1,0.,24.0,0.,24.0,0.,24.0,0.,24.0
1989-08-26T06:09:20.590 ,6,0,0.,24.0,0.,24.0,0.,24.0,0.,24.0
1989-08-26T06:09:44.590 ,7,1,0.,24.0,0.,24.0,0.,24.0,0.,24.0
1989-08-26T06:10:08.590 ,7,0,0.,24.0,0.,24.0,0.,24.0,0.,24.0
1989-08-26T06:10:32.590 ,7,1,0.,24.0,0.,24.0,0.,24.0,0.,24.0
1989-08-26T06:10:56.590 ,7,0,0.,24.0,0.,24.0,0.,24.0,0.,24.0
1989-08-26T06:11:20.590 ,6,1,0.,24.0,0.,24.0,0.,24.0,0.,24.0
1989-08-26T06:11:44.590 ,6,0,0.,24.0,0.,24.0,0.,24.0,0.,24.0
1989-08-26T06:12:08.590 ,5,1,0.,24.0,0.,24.0,0.,24.0,0.,24.0
1989-08-26T06:12:32.590 ,5,0,0.,24.0,0.,24.0,0.,24.0,0.,24.0
1989-08-26T06:12:56.590 ,4,1,0.,24.0,0.,24.0,0.,24.0,0.,24.0
1989-08-26T06:13:20.590 ,4,0,0.,24.0,0.,24.0,0.,24.0,0.,24.0
1989-08-26T06:13:44.590 ,3,1,0.,24.0,0.,24.0,0.,24.0,0.,24.0
1989-08-26T06:14:08.590 ,3,0,0.,24.0,0.,24.0,0.,24.0,0.,24.0
1989-08-26T06:14:32.590 ,2,1,0.,24.0,0.,24.0,0.,24.0,0.,24.0
1989-08-26T06:14:56.590 ,2,0,0.,24.0,0.,24.0,0.,24.0,0.,24.0
1989-08-26T06:15:20.590 ,1,1,0.,24.0,0.,24.0,0.,24.0,0.,24.0
1989-08-26T06:15:44.590 ,1,0,0.,24.0,0.,24.0,0.,24.0,0.,24.0
1989-08-26T06:16:08.590 ,0,1,0.,24.0,0.,24.0,0.,24.0,0.,24.0
1989-08-26T06:16:32.590 ,0,0,0.,24.0,0.,24.0,0.,24.0,0.,24.0
1989-08-26T06:16:56.590 ,0,1,0.,24.0,0.,24.0,0.,24.0,0.,24.0
1989-08-26T06:17:20.590 ,0,0,0.,24.0,0.,24.0,0.,24.0,0.,24.0
1989-08-26T06:17:44.590 ,1,1,0.,24.0,0.,24.0,0.,24.0,0.,24.0
1989-08-26T06:18:08.590 ,1,0,0.,24.0,0.,24.0,0.,24.0,0.,24.0
1989-08-26T06:18:32.590 ,2,1,0.,24.0,0.,24.0,0.,24.0,0.,24.0
1989-08-26T06:18:56.590 ,2,0,0.,24.0,0.,24.0,0.,24.0,0.,24.0
1989-08-26T06:19:20.590 ,3,1,0.,24.0,0.,24.0,0.,24.0,0.,24.0
1989-08-26T06:19:44.590 ,3,0,0.,24.0,0.,24.0,0.,24.0,0.,24.0
1989-08-26T06:20:08.590 ,4,1,0.,24.0,0.,24.0,0.,24.0,0.,24.0
1989-08-26T06:20:32.590 ,4,0,0.,24.0,0.,24.0,0.,24.0,0.,24.0
1989-08-26T06:20:56.590 ,5,1,0.,24.0,0.,24.0,0.,24.0,0.,24.0
1989-08-26T06:21:20.590 ,5,0,0.,24.0,0.,24.0,0.,24.0,0.,24.0
1989-08-26T06:21:44.590 ,6,1,0.,24.0,0.,24.0,0.,24.0,0.,24.0
1989-08-26T06:22:08.590 ,6,0,0.,24.0,0.,24.0,0.,24.0,0.,24.0
1989-08-26T06:22:32.590 ,7,1,0.,24.0,0.,24.0,0.,24.0,0.,24.0
1989-08-26T06:22:56.590 ,7,0,0.,24.0,0.,24.0,0.,24.0,0.,24.0
1989-08-26T06:23:20.590 ,7,1,0.,24.0,0.,24.0,0.,24.0,0.,24.0
1989-08-26T06:23:44.590 ,7,0,0.,24.0,0.,24.0,0.,24.0,0.,24.0
1989-08-26T06:24:08.590 ,6,1,0.,24.0,0.,24.0,0.,24.0,0.,24.0
1989-08-26T06:24:32.590 ,6,0,0.,24.0,0.,24.0,0.,24.0,0.,24.0
1989-08-26T06:24:56.590 ,5,1,0.,24.0,0.,24.0,0.,24.0,0.,24.0
1989-08-26T06:25:20.590 ,5,0,0.,24.0,0.,24.0,0.,24.0,0.,24.0
1989-08-26T06:25:44.590 ,4,1,0.,24.0,0.,24.0,0.,24.0,0.,24.0
1989-08-26T06:26:08.590 ,4,0,0.,24.0,0.,24.0,0.,24.0,0.,24.0
1989-08-26T06:26:32.590 ,3,1,0.,24.0,0.,24.0,0.,24.0,0.,24.0
1989-08-26T06:26:56.590 ,3,0,0.,24.0,0.,24.0,0.,24.0,0.,24.0
1989-08-26T06:27:20.590 ,2,1,0.,24.0,0.,24.0,0.,24.0,0.,24.0
1989-08-26T06:27:44.590 ,2,0,0.,24.0,0.,24.0,0.,24.0,0.,24.0
1989-08-26T06:28:08.590 ,1,1,0.,24.0,0.,24.0,0.,24.0,0.,24.0
1989-08-26T06:28:32.590 ,1,0,0.,24.0,0.,24.0,0.,24.0,0.,24.0
1989-08-26T06:28:56.590 ,0,1,0.,24.0,0.,24.0,0.,24.0,0.,24.0
1989-08-26T06:29:20.590 ,0,0,0.,24.0,0.,24.0,0.,24.0,0.,24.0
1989-08-26T06:29:44.590 ,0,1,0.,24.0,0.,24.0,0.,24.0,0.,24.0
1989-08-26T06:30:08.590 ,0,0,0.,24.0,0.,24.0,0.,24.0,0.,24.0
1989-08-26T06:30:32.590 ,1,1,0.,24.0,0.,24.0,0.,24.0,0.,24.0
1989-08-26T06:30:56.590 ,1,0,0.,24.0,0.,24.0,0.,24.0,0.,24.0
1989-08-26T06:31:20.590 ,2,1,0.,24.0,0.,24.0,0.,24.0,0.,24.0
1989-08-26T06:31:44.590 ,2,0,0.,24.0,0.,24.0,0.,24.0,0.,24.0
1989-08-26T06:32:08.590 ,3,1,0.,24.0,0.,24.0,0.,24.0,0.,24.0
1989-08-26T06:32:32.590 ,3,0,0.,24.0,0.,24.0,0.,24.0,0.,24.0
1989-08-26T06:32:56.590 ,4,1,0.,24.0,0.,24.0,0.,24.0,0.,24.0
1989-08-26T06:33:20.590 ,4,0,0.,24.0,0.,24.0,0.,24.0,0.,24.0
1989-08-26T06:33:44.590 ,5,1,0.,24.0,0.,24.0,0.,24.0,0.,24.0
1989-08-26T06:34:08.590 ,5,0,0.,24.0,0.,24.0,0.,24.0,0.,24.0
1989-08-26T06:34:32.590 ,6,1,0.,24.0,0.,24.0,0.,24.0,0.,24.0
1989-08-26T06:34:56.590 ,6,0,0.,24.0,0.,24.0,0.,24.0,0.,24.0
1989-08-26T06:35:20.590 ,7,1,0.,24.0,0.,24.0,0.,24.0,0.,24.0
1989-08-26T06:35:44.590 ,7,0,0.,24.0,0.,24.0,0.,24.0,0.,24.0
1989-08-26T06:36:08.590 ,7,1,0.,24.0,0.,24.0,0.,24.0,0.,24.0
1989-08-26T06:36:32.590 ,7,0,0.,24.0,0.,24.0,0.,24.0,0.,24.0
1989-08-26T06:36:56.590 ,6,1,0.,24.0,0.,24.0,0.,24.0,0.,24.0
1989-08-26T06:37:20.590 ,6,0,0.,24.0,0.,24.0,0.,24.0,0.,24.0
1989-08-26T06:37:44.590 ,5,1,0.,24.0,0.,24.0,0.,24.0,0.,24.0
1989-08-26T06:38:08.590 ,5,0,0.,24.0,0.,24.0,0.,24.0,0.,24.0
1989-08-26T06:38:32.590 ,4,1,0.,24.0,0.,24.0,0.,24.0,0.,24.0
1989-08-26T06:38:56.590 ,4,0,0.,24.0,0.,24.0,0.,24.0,0.,24.0
1989-08-26T06:39:20.590 ,3,1,0.,24.0,0.,24.0,0.,24.0,0.,24.0
1989-08-26T06:39:44.590 ,3,0,0.,24.0,0.,24.0,0.,24.0,0.,24.0
1989-08-26T06:40:08.590 ,2,1,0.,24.0,0.,24.0,0.,24.0,0.,24.0
1989-08-26T06:40:32.590 ,2,0,0.,24.0,0.,24.0,0.,24.0,0.,24.0
1989-08-26T06:40:56.590 ,1,1,0.,24.0,0.,24.0,0.,24.0,0.,24.0
1989-08-26T06:41:20.590 ,1,0,0.,24.0,0.,24.0,0.,24.0,0.,24.0
1989-08-26T06:41:44.590 ,0,1,0.,24.0,0.,24.0,0.,24.0,0.,24.0
1989-08-26T06:42:08.590 ,0,0,0.,24.0,0.,24.0,0.,24.0,0.,24.0
1989-08-26T06:42:32.590 ,0,1,0.,24.0,0.,24.0,0.,24.0,0.,24.0
1989-08-26T06:42:56.590 ,0,0,0.,24.0,0.,24.0,0.,24.0,0.,24.0
1989-08-26T06:43:20.590 ,1,1,0.,24.0,0.,24.0,0.,24.0,0.,24.0
1989-08-26T06:43:44.590 ,1,0,0.,24.0,0.,24.0,0.,24.0,0.,24.0
1989-08-26T06:44:08.590 ,2,1,0.,24.0,0.,24.0,0.,24.0,0.,24.0
1989-08-26T06:44:32.590 ,2,0,0.,24.0,0.,24.0,0.,24.0,0.,24.0
1989-08-26T06:44:56.590 ,3,1,0.,24.0,0.,24.0,0.,24.0,0.,24.0
1989-08-26T06:45:20.590 ,3,0,0.,24.0,0.,24.0,0.,24.0,0.,24.0
1989-08-26T06:45:44.590 ,4,1,0.,24.0,0.,24.0,0.,24.0,0.,24.0
1989-08-26T06:46:08.590 ,4,0,0.,24.0,0.,24.0,0.,24.0,0.,24.0
1989-08-26T06:46:32.590 ,5,1,0.,24.0,0.,24.0,0.,24.0,0.,24.0
1989-08-26T06:46:56.590 ,5,0,0.,24.0,0.,24.0,0.,24.0,0.,24.0
1989-08-26T06:47:20.590 ,6,1,0.,24.0,0.,24.0,0.,24.0,0.,24.0
1989-08-26T06:47:44.590 ,6,0,0.,24.0,0.,24.0,0.,24.0,0.,24.0
1989-08-26T06:48:08.590 ,7,1,0.,24.0,0.,24.0,0.,24.0,0.,24.0
1989-08-26T06:48:32.590 ,7,0,0.,24.0,0.,24.0,0.,24.0,0.,24.0
1989-08-26T06:48:56.590 ,7,1,0.,24.0,0.,24.0,0.,24.0,0.,24.0
1989-08-26T06:49:20.590 ,7,0,0.,24.0,0.,24.0,0.,24.0,0.,24.0
1989-08-26T06:49:44.590 ,6,1,0.,24.0,0.,24.0,0.,24.0,0.,24.0
1989-08-26T06:50:08.590 ,6,0,0.,24.0,0.,24.0,0.,24.0,0.,24.0
1989-08-26T06:50:32.590 ,5,1,0.,24.0,0.,24.0,0.,24.0,0.,24.0
1989-08-26T06:50:56.590 ,5,0,0.,24.0,0.,24.0,0.,24.0,0.,24.0
1989-08-26T06:51:20.590 ,4,1,0.,24.0,0.,24.0,0.,24.0,0.,24.0
1989-08-26T06:51:44.590 ,4,0,0.,24.0,0.,24.0,0.,24.0,0.,24.0
1989-08-26T06:52:08.590 ,3,1,0.,24.0,0.,24.0,0.,24.0,0.,24.0
1989-08-26T06:52:32.590 ,3,0,0.,24.0,0.,24.0,0.,24.0,0.,24.0
1989-08-26T06:54:32.590 ,0,0,0.,24.0,0.,24.0,0.,24.0,0.,24.0
1989-08-26T06:54:56.590 ,0,0,0.,24.0,0.,24.0,0.,24.0,0.,24.0
1989-08-26T06:55:20.590 ,0,1,0.,24.0,0.,24.0,0.,24.0,0.,24.0
1989-08-26T06:55:44.590 ,0,0,0.,24.0,0.,24.0,0.,24.0,0.,24.0
1989-08-26T06:56:08.590 ,1,1,0.,24.0,0.,24.0,0.,24.0,0.,24.0
1989-08-26T06:56:32.590 ,1,0,0.,24.0,0.,24.0,0.,24.0,0.,24.0
1989-08-26T06:56:56.590 ,2,1,0.,24.0,0.,24.0,0.,24.0,0.,24.0
1989-08-26T06:57:20.590 ,2,0,0.,24.0,0.,24.0,0.,24.0,0.,24.0
1989-08-26T06:57:44.590 ,3,1,0.,24.0,0.,24.0,0.,24.0,0.,24.0
1989-08-26T06:58:08.590 ,3,0,0.,24.0,0.,24.0,0.,24.0,0.,24.0
1989-08-26T06:58:32.590 ,4,1,0.,24.0,0.,24.0,0.,24.0,0.,24.0
1989-08-26T06:58:56.590 ,4,0,0.,24.0,0.,24.0,0.,24.0,0.,24.0
1989-08-26T06:59:20.580 ,5,1,0.,24.0,0.,24.0,0.,24.0,0.,24.0
1989-08-26T06:59:44.580 ,5,0,0.,24.0,0.,24.0,0.,24.0,0.,24.0
1989-08-26T07:00:08.590 ,6,1,0.,24.0,0.,24.0,0.,24.0,0.,24.0
1989-08-26T07:00:32.590 ,6,0,0.,24.0,0.,24.0,0.,24.0,0.,24.0
1989-08-26T07:00:56.590 ,7,1,0.,24.0,0.,24.0,0.,24.0,0.,24.0
1989-08-26T07:01:20.580 ,7,0,0.,24.0,0.,24.0,0.,24.0,0.,24.0
1989-08-26T07:01:44.580 ,7,1,0.,24.0,0.,24.0,0.,24.0,0.,24.0
1989-08-26T07:02:08.580 ,7,0,0.,24.0,0.,24.0,0.,24.0,0.,24.0
1989-08-26T07:02:32.590 ,6,1,0.,24.0,0.,24.0,0.,24.0,0.,24.0
1989-08-26T07:02:56.590 ,6,0,0.,24.0,0.,24.0,0.,24.0,0.,24.0
1989-08-26T07:03:20.590 ,5,1,0.,24.0,0.,24.0,0.,24.0,0.,24.0
1989-08-26T07:03:44.590 ,5,0,0.,24.0,0.,24.0,0.,24.0,0.,24.0
1989-08-26T07:04:08.590 ,4,1,0.,24.0,0.,24.0,0.,24.0,0.,24.0
1989-08-26T07:04:32.580 ,4,0,0.,24.0,0.,24.0,0.,24.0,0.,24.0
1989-08-26T07:04:56.580 ,3,1,0.,24.0,0.,24.0,0.,24.0,0.,24.0
1989-08-26T07:05:20.580 ,3,0,0.,24.0,0.,24.0,0.,24.0,0.,24.0
1989-08-26T07:05:44.580 ,2,1,0.,24.0,0.,24.0,0.,24.0,0.,24.0
1989-08-26T07:06:08.580 ,2,0,0.,24.0,0.,24.0,0.,24.0,0.,24.0
1989-08-26T07:06:32.580 ,1,1,0.,24.0,0.,24.0,0.,24.0,0.,24.0
1989-08-26T07:06:56.580 ,1,0,0.,24.0,0.,24.0,0.,24.0,0.,24.0
1989-08-26T07:07:20.580 ,0,1,0.,24.0,0.,24.0,0.,24.0,0.,24.0
1989-08-26T07:07:44.580 ,0,0,0.,24.0,0.,24.0,0.,24.0,0.,24.0
1989-08-26T07:08:08.580 ,0,1,0.,24.0,0.,24.0,0.,24.0,0.,24.0
1989-08-26T07:08:32.590 ,0,0,0.,24.0,0.,24.0,0.,24.0,0.,24.0
1989-08-26T07:08:56.590 ,1,1,0.,24.0,0.,24.0,0.,24.0,0.,24.0
1989-08-26T07:09:20.590 ,1,0,0.,24.0,0.,24.0,0.,24.0,0.,24.0
1989-08-26T07:09:44.590 ,2,1,0.,24.0,0.,24.0,0.,24.0,0.,24.0
1989-08-26T07:10:08.590 ,2,0,0.,24.0,0.,24.0,0.,24.0,0.,24.0
1989-08-26T07:10:32.590 ,3,1,0.,24.0,0.,24.0,0.,24.0,0.,24.0
1989-08-26T07:10:56.590 ,3,0,0.,24.0,0.,24.0,0.,24.0,0.,24.0
1989-08-26T07:11:20.590 ,4,1,0.,24.0,0.,24.0,0.,24.0,0.,24.0
1989-08-26T07:11:44.590 ,4,0,0.,24.0,0.,24.0,0.,24.0,0.,24.0
1989-08-26T07:12:08.580 ,5,1,0.,24.0,0.,24.0,0.,24.0,0.,24.0
1989-08-26T07:12:32.580 ,5,0,0.,24.0,0.,24.0,0.,24.0,0.,24.0
1989-08-26T07:12:56.580 ,6,1,0.,24.0,0.,24.0,0.,24.0,0.,24.0
1989-08-26T07:13:20.580 ,6,0,0.,24.0,0.,24.0,0.,24.0,0.,24.0
1989-08-26T07:13:44.580 ,7,1,0.,24.0,0.,24.0,0.,24.0,0.,24.0
1989-08-26T07:14:08.580 ,7,0,0.,24.0,0.,24.0,0.,24.0,0.,24.0
1989-08-26T07:14:32.580 ,7,1,0.,24.0,0.,24.0,0.,24.0,0.,24.0
1989-08-26T07:14:56.580 ,7,0,0.,24.0,0.,24.0,0.,24.0,0.,24.0
1989-08-26T07:15:20.580 ,6,1,0.,24.0,0.,24.0,0.,24.0,0.,24.0
1989-08-26T07:15:44.580 ,6,0,0.,24.0,0.,24.0,0.,24.0,0.,24.0
1989-08-26T07:16:08.580 ,5,1,0.,24.0,0.,24.0,0.,24.0,0.,24.0
1989-08-26T07:16:32.580 ,5,0,0.,24.0,0.,24.0,0.,24.0,0.,24.0
1989-08-26T07:16:56.580 ,4,1,0.,24.0,0.,24.0,0.,24.0,0.,24.0
1989-08-26T07:17:20.580 ,4,0,0.,24.0,0.,24.0,0.,24.0,0.,24.0
1989-08-26T07:17:44.580 ,3,1,0.,24.0,0.,24.0,0.,24.0,0.,24.0
1989-08-26T07:18:08.580 ,3,0,0.,24.0,0.,24.0,0.,24.0,0.,24.0
1989-08-26T07:18:32.580 ,2,1,0.,24.0,0.,24.0,0.,24.0,0.,24.0
1989-08-26T07:18:56.580 ,2,0,0.,24.0,0.,24.0,0.,24.0,0.,24.0
1989-08-26T07:19:20.580 ,1,1,0.,24.0,0.,24.0,0.,24.0,0.,24.0
1989-08-26T07:19:44.580 ,1,0,0.,24.0,0.,24.0,0.,24.0,0.,24.0
1989-08-26T07:20:08.580 ,0,1,0.,24.0,0.,24.0,0.,24.0,0.,24.0
1989-08-26T07:20:32.580 ,0,0,0.,24.0,0.,24.0,0.,24.0,0.,24.0
1989-08-26T07:20:56.580 ,0,1,0.,24.0,0.,24.0,0.,24.0,0.,24.0
1989-08-26T07:21:20.580 ,0,0,0.,24.0,0.,24.0,0.,24.0,0.,24.0
1989-08-26T07:21:44.580 ,1,1,0.,24.0,0.,24.0,0.,24.0,0.,24.0
1989-08-26T07:22:08.580 ,1,0,0.,24.0,0.,24.0,0.,24.0,0.,24.0
1989-08-26T07:22:32.580 ,2,1,0.,24.0,0.,24.0,0.,24.0,0.,24.0
1989-08-26T07:22:56.580 ,2,0,0.,24.0,0.,24.0,0.,24.0,0.,24.0
1989-08-26T07:23:20.580 ,3,1,0.,24.0,0.,24.0,0.,24.0,0.,24.0
1989-08-26T07:23:44.580 ,3,0,0.,24.0,0.,24.0,0.,24.0,0.,24.0
1989-08-26T07:24:08.580 ,4,1,0.,24.0,0.,24.0,0.,24.0,0.,24.0
1989-08-26T07:24:32.580 ,4,0,0.,24.0,0.,24.0,0.,24.0,0.,24.0
1989-08-26T07:24:56.580 ,5,1,0.,24.0,0.,24.0,0.,24.0,0.,24.0
1989-08-26T07:25:20.580 ,5,0,0.,24.0,0.,24.0,0.,24.0,0.,24.0
1989-08-26T07:25:44.580 ,6,1,0.,24.0,0.,24.0,0.,24.0,0.,24.0
1989-08-26T07:26:08.580 ,6,0,0.,24.0,0.,24.0,0.,24.0,0.,24.0
1989-08-26T07:26:32.580 ,7,1,0.,24.0,0.,24.0,0.,24.0,0.,24.0
1989-08-26T07:26:56.580 ,7,0,0.,24.0,0.,24.0,0.,24.0,0.,24.0
1989-08-26T07:27:20.580 ,7,1,0.,24.0,0.,24.0,0.,24.0,0.,24.0
1989-08-26T07:27:44.580 ,7,0,0.,24.0,0.,24.0,0.,24.0,0.,24.0
1989-08-26T07:28:08.580 ,6,1,0.,24.0,0.,24.0,0.,24.0,0.,24.0
1989-08-26T07:28:32.580 ,6,0,0.,24.0,0.,24.0,0.,24.0,0.,24.0
1989-08-26T07:28:56.580 ,5,1,0.,24.0,0.,24.0,0.,24.0,0.,24.0
1989-08-26T07:29:20.580 ,5,0,0.,24.0,0.,24.0,0.,24.0,0.,24.0
1989-08-26T07:29:44.580 ,4,1,0.,24.0,0.,24.0,0.,24.0,0.,24.0
1989-08-26T07:30:08.580 ,4,0,0.,24.0,0.,24.0,0.,24.0,0.,24.0
1989-08-26T07:30:32.580 ,3,1,0.,24.0,0.,24.0,0.,24.0,0.,24.0
1989-08-26T07:30:56.580 ,3,0,0.,24.0,0.,24.0,0.,24.0,0.,24.0
1989-08-26T07:31:20.580 ,2,1,0.,24.0,0.,24.0,0.,24.0,0.,24.0
1989-08-26T07:31:44.580 ,2,0,0.,24.0,0.,24.0,0.,24.0,0.,24.0
1989-08-26T07:32:08.580 ,1,1,0.,24.0,0.,24.0,0.,24.0,0.,24.0
1989-08-26T07:32:32.580 ,1,0,0.,24.0,0.,24.0,0.,24.0,0.,24.0
1989-08-26T07:32:56.580 ,0,1,0.,24.0,0.,24.0,0.,24.0,0.,24.0
1989-08-26T07:33:20.580 ,0,0,0.,24.0,0.,24.0,0.,24.0,0.,24.0
1989-08-26T07:33:44.580 ,0,1,0.,24.0,0.,24.0,0.,24.0,0.,24.0
1989-08-26T07:34:08.580 ,0,0,0.,24.0,0.,24.0,0.,24.0,0.,24.0
1989-08-26T07:34:32.580 ,1,1,0.,24.0,0.,24.0,0.,24.0,0.,24.0
1989-08-26T07:34:56.580 ,1,0,0.,24.0,0.,24.0,0.,24.0,0.,24.0
1989-08-26T07:35:20.580 ,2,1,0.,24.0,0.,24.0,0.,24.0,0.,24.0
1989-08-26T07:35:44.580 ,2,0,0.,24.0,0.,24.0,0.,24.0,0.,24.0
1989-08-26T07:36:08.580 ,3,1,0.,24.0,0.,24.0,0.,24.0,0.,24.0
1989-08-26T07:36:32.580 ,3,0,0.,24.0,0.,24.0,0.,24.0,0.,24.0
1989-08-26T07:36:56.580 ,4,1,0.,24.0,0.,24.0,0.,24.0,0.,24.0
1989-08-26T07:37:20.580 ,4,0,0.,24.0,0.,24.0,0.,24.0,0.,24.0
1989-08-26T07:37:44.580 ,5,1,0.,24.0,0.,24.0,0.,24.0,0.,24.0
1989-08-26T07:38:08.580 ,5,0,0.,24.0,0.,24.0,0.,24.0,0.,24.0
1989-08-26T07:38:32.580 ,6,1,0.,24.0,0.,24.0,0.,24.0,0.,24.0
1989-08-26T07:38:56.580 ,6,0,0.,24.0,0.,24.0,0.,24.0,0.,24.0
1989-08-26T07:39:20.580 ,7,1,0.,24.0,0.,24.0,0.,24.0,0.,24.0
1989-08-26T07:39:44.580 ,7,0,0.,24.0,0.,24.0,0.,24.0,0.,24.0
1989-08-26T07:40:08.580 ,7,1,0.,24.0,0.,24.0,0.,24.0,0.,24.0
1989-08-26T07:40:32.580 ,7,0,0.,24.0,0.,24.0,0.,24.0,0.,24.0
1989-08-26T07:40:56.580 ,6,1,0.,24.0,0.,24.0,0.,24.0,0.,24.0
1989-08-26T07:41:20.580 ,6,0,0.,24.0,0.,24.0,0.,24.0,0.,24.0
1989-08-26T07:41:44.580 ,5,1,0.,24.0,0.,24.0,0.,24.0,0.,24.0
1989-08-26T07:42:08.580 ,5,0,0.,24.0,0.,24.0,0.,24.0,0.,24.0
1989-08-26T07:42:32.580 ,4,1,0.,24.0,0.,24.0,0.,24.0,0.,24.0
1989-08-26T07:42:56.580 ,4,0,0.,24.0,0.,24.0,0.,24.0,0.,24.0
1989-08-26T07:43:20.580 ,3,1,0.,24.0,0.,24.0,0.,24.0,0.,24.0
1989-08-26T07:43:44.580 ,3,0,0.,24.0,0.,24.0,0.,24.0,0.,24.0
1989-08-26T07:44:08.580 ,2,1,0.,24.0,0.,24.0,0.,24.0,0.,24.0
1989-08-26T07:44:32.580 ,2,0,0.,24.0,0.,24.0,0.,24.0,0.,24.0
1989-08-26T07:44:56.580 ,1,1,0.,24.0,0.,24.0,0.,24.0,0.,24.0
1989-08-26T07:45:20.580 ,1,0,0.,24.0,0.,24.0,0.,24.0,0.,24.0
1989-08-26T07:45:44.580 ,0,1,0.,24.0,0.,24.0,0.,24.0,0.,24.0
1989-08-26T07:46:08.580 ,0,0,0.,24.0,0.,24.0,0.,24.0,0.,24.0
1989-08-26T07:46:32.580 ,0,1,0.,24.0,0.,24.0,0.,24.0,0.,24.0
1989-08-26T07:46:56.580 ,0,0,0.,24.0,0.,24.0,0.,24.0,0.,24.0
1989-08-26T07:47:20.580 ,1,1,0.,24.0,0.,24.0,0.,24.0,0.,24.0
1989-08-26T07:47:44.580 ,1,0,0.,24.0,0.,24.0,0.,24.0,0.,24.0
1989-08-26T07:48:08.580 ,2,1,0.,24.0,0.,24.0,0.,24.0,0.,24.0
1989-08-26T07:48:32.580 ,2,0,0.,24.0,0.,24.0,0.,24.0,0.,24.0
1989-08-26T07:48:56.580 ,3,1,0.,24.0,0.,24.0,0.,24.0,0.,24.0
1989-08-26T07:49:20.580 ,3,0,0.,24.0,0.,24.0,0.,24.0,0.,24.0
1989-08-26T07:49:44.580 ,4,1,0.,24.0,0.,24.0,0.,24.0,0.,24.0
1989-08-26T07:50:08.580 ,4,0,0.,24.0,0.,24.0,0.,24.0,0.,24.0
1989-08-26T07:50:32.580 ,5,1,0.,24.0,0.,24.0,0.,24.0,0.,24.0
1989-08-26T07:50:56.580 ,5,0,0.,24.0,0.,24.0,0.,24.0,0.,24.0
1989-08-26T07:51:20.580 ,6,1,0.,24.0,0.,24.0,0.,24.0,0.,24.0
1989-08-26T07:51:44.580 ,6,0,0.,24.0,0.,24.0,0.,24.0,0.,24.0
1989-08-26T07:52:08.580 ,7,1,0.,24.0,0.,24.0,0.,24.0,0.,24.0
1989-08-26T07:52:32.580 ,7,0,0.,24.0,0.,24.0,0.,24.0,0.,24.0
1989-08-26T07:52:56.580 ,7,1,0.,24.0,0.,24.0,0.,24.0,0.,24.0
1989-08-26T07:53:20.580 ,7,0,0.,24.0,0.,24.0,0.,24.0,0.,24.0
1989-08-26T07:53:44.580 ,6,1,0.,24.0,0.,24.0,0.,24.0,0.,24.0
1989-08-26T07:54:08.580 ,6,0,0.,24.0,0.,24.0,0.,24.0,0.,24.0
1989-08-26T07:54:32.580 ,5,1,0.,24.0,0.,24.0,0.,24.0,0.,24.0
1989-08-26T07:54:56.580 ,5,0,0.,24.0,0.,24.0,0.,24.0,0.,24.0
1989-08-26T07:55:20.580 ,4,1,0.,24.0,0.,24.0,0.,24.0,0.,24.0
1989-08-26T07:55:44.580 ,4,0,0.,24.0,0.,24.0,0.,24.0,0.,24.0
1989-08-26T07:56:08.580 ,3,1,0.,24.0,0.,24.0,0.,24.0,0.,24.0
1989-08-26T07:56:32.580 ,3,0,0.,24.0,0.,24.0,0.,24.0,0.,24.0
1989-08-26T07:56:56.580 ,2,1,0.,24.0,0.,24.0,0.,24.0,0.,24.0
1989-08-26T07:57:20.580 ,2,0,0.,24.0,0.,24.0,0.,24.0,0.,24.0
1989-08-26T07:57:44.580 ,1,1,0.,24.0,0.,24.0,0.,24.0,0.,24.0
1989-08-26T07:58:08.580 ,1,0,0.,24.0,0.,24.0,0.,24.0,0.,24.0
1989-08-26T07:58:32.580 ,0,1,0.,24.0,0.,24.0,0.,24.0,0.,24.0
1989-08-26T07:58:56.580 ,0,0,0.,24.0,0.,24.0,0.,24.0,0.,24.0
1989-08-26T07:59:20.580 ,0,1,0.,24.0,0.,24.0,0.,24.0,0.,24.0
1989-08-26T07:59:44.580 ,0,0,0.,24.0,0.,24.0,0.,24.0,0.,24.0
1989-08-26T08:00:08.580 ,1,1,0.,24.0,0.,24.0,0.,24.0,0.,24.0
1989-08-26T08:00:32.580 ,1,0,0.,24.0,0.,24.0,0.,24.0,0.,24.0
1989-08-26T08:00:56.580 ,2,1,0.,24.0,0.,24.0,0.,24.0,0.,24.0
1989-08-26T08:01:20.580 ,2,0,0.,24.0,0.,24.0,0.,24.0,0.,24.0
1989-08-26T08:01:44.580 ,3,1,0.,24.0,0.,24.0,0.,24.0,0.,24.0
1989-08-26T08:02:08.580 ,3,0,0.,24.0,0.,24.0,0.,24.0,0.,24.0
1989-08-26T08:02:32.580 ,4,1,0.,24.0,0.,24.0,0.,24.0,0.,24.0
1989-08-26T08:02:56.580 ,4,0,0.,24.0,0.,24.0,0.,24.0,0.,24.0
1989-08-26T08:03:20.580 ,5,1,0.,24.0,0.,24.0,0.,24.0,0.,24.0
1989-08-26T08:03:44.580 ,5,0,0.,24.0,0.,24.0,0.,24.0,0.,24.0
1989-08-26T08:04:08.580 ,6,1,0.,24.0,0.,24.0,0.,24.0,0.,24.0
1989-08-26T08:04:32.580 ,6,0,0.,24.0,0.,24.0,0.,24.0,0.,24.0
1989-08-26T08:04:56.580 ,7,1,0.,24.0,0.,24.0,0.,24.0,0.,24.0
1989-08-26T08:05:20.580 ,7,0,0.,24.0,0.,24.0,0.,24.0,0.,24.0
1989-08-26T08:05:44.580 ,7,1,0.,24.0,0.,24.0,0.,24.0,0.,24.0
1989-08-26T08:06:08.580 ,7,0,0.,24.0,0.,24.0,0.,24.0,0.,24.0
1989-08-26T08:06:32.580 ,6,1,0.,24.0,0.,24.0,0.,24.0,0.,24.0
1989-08-26T08:06:56.580 ,6,0,0.,24.0,0.,24.0,0.,24.0,0.,24.0
1989-08-26T08:07:20.580 ,5,1,0.,24.0,0.,24.0,0.,24.0,0.,24.0
1989-08-26T08:07:44.580 ,5,0,0.,24.0,0.,24.0,0.,24.0,0.,24.0
1989-08-26T08:08:08.580 ,4,1,0.,24.0,0.,24.0,0.,24.0,0.,24.0
1989-08-26T08:08:32.580 ,4,0,0.,24.0,0.,24.0,0.,24.0,0.,24.0
1989-08-26T08:08:56.580 ,3,1,0.,24.0,0.,24.0,0.,24.0,0.,24.0
1989-08-26T08:09:20.580 ,3,0,0.,24.0,0.,24.0,0.,24.0,0.,24.0
1989-08-26T08:09:44.580 ,2,1,0.,24.0,0.,24.0,0.,24.0,0.,24.0
1989-08-26T08:10:08.580 ,2,0,0.,24.0,0.,24.0,0.,24.0,0.,24.0
1989-08-26T08:10:32.580 ,1,1,0.,24.0,0.,24.0,0.,24.0,0.,24.0
1989-08-26T08:10:56.580 ,1,0,0.,24.0,0.,24.0,0.,24.0,0.,24.0
1989-08-26T08:11:20.580 ,0,1,0.,24.0,0.,24.0,0.,24.0,0.,24.0
1989-08-26T08:11:44.580 ,0,0,0.,24.0,0.,24.0,0.,24.0,0.,24.0
1989-08-26T08:12:08.580 ,0,1,0.,24.0,0.,24.0,0.,24.0,0.,24.0
1989-08-26T08:12:32.580 ,0,0,0.,24.0,0.,24.0,0.,24.0,0.,24.0
1989-08-26T08:12:56.580 ,1,1,0.,24.0,0.,24.0,0.,24.0,0.,24.0
1989-08-26T08:13:20.580 ,1,0,0.,24.0,0.,24.0,0.,24.0,0.,24.0
1989-08-26T08:13:44.580 ,2,1,0.,24.0,0.,24.0,0.,24.0,0.,24.0
1989-08-26T08:14:08.580 ,2,0,0.,24.0,0.,24.0,0.,24.0,0.,24.0
1989-08-26T08:14:32.580 ,3,1,0.,24.0,0.,24.0,0.,24.0,0.,24.0
1989-08-26T08:14:56.580 ,3,0,0.,24.0,0.,24.0,0.,24.0,0.,24.0
1989-08-26T08:15:20.580 ,4,1,0.,24.0,0.,24.0,0.,24.0,0.,24.0
1989-08-26T08:15:44.580 ,4,0,0.,24.0,0.,24.0,0.,24.0,0.,24.0
1989-08-26T08:16:08.580 ,5,1,0.,24.0,0.,24.0,0.,24.0,0.,24.0
1989-08-26T08:16:32.580 ,5,0,0.,24.0,0.,24.0,0.,24.0,0.,24.0
1989-08-26T08:16:56.580 ,6,1,0.,24.0,0.,24.0,0.,24.0,0.,24.0
1989-08-26T08:17:20.580 ,6,0,0.,24.0,0.,24.0,0.,24.0,0.,24.0
1989-08-26T08:17:44.580 ,7,1,0.,24.0,0.,24.0,0.,24.0,0.,24.0
1989-08-26T08:18:08.580 ,7,0,0.,24.0,0.,24.0,0.,24.0,0.,24.0
1989-08-26T08:18:32.580 ,7,1,0.,24.0,0.,24.0,0.,24.0,0.,24.0
1989-08-26T08:18:56.580 ,7,0,0.,24.0,0.,24.0,0.,24.0,0.,24.0
1989-08-26T08:19:20.580 ,6,1,0.,24.0,0.,24.0,0.,24.0,0.,24.0
1989-08-26T08:19:44.580 ,6,0,0.,24.0,0.,24.0,0.,24.0,0.,24.0
1989-08-26T08:20:08.580 ,5,1,0.,24.0,0.,24.0,0.,24.0,0.,24.0
1989-08-26T08:20:32.580 ,5,0,0.,24.0,0.,24.0,0.,24.0,0.,24.0
1989-08-26T08:20:56.580 ,4,1,0.,24.0,0.,24.0,0.,24.0,0.,24.0
1989-08-26T08:21:20.580 ,4,0,0.,24.0,0.,24.0,0.,24.0,0.,24.0
1989-08-26T08:21:44.580 ,3,1,0.,24.0,0.,24.0,0.,24.0,0.,24.0
1989-08-26T08:22:08.580 ,3,0,0.,24.0,0.,24.0,0.,24.0,0.,24.0
1989-08-26T08:22:32.580 ,2,1,0.,24.0,0.,24.0,0.,24.0,0.,24.0
1989-08-26T08:22:56.580 ,2,0,0.,24.0,0.,24.0,0.,24.0,0.,24.0
1989-08-26T08:23:20.580 ,1,1,0.,24.0,0.,24.0,0.,24.0,0.,24.0
1989-08-26T08:23:44.580 ,1,0,0.,24.0,0.,24.0,0.,24.0,0.,24.0
1989-08-26T08:24:08.580 ,0,1,0.,24.0,0.,24.0,0.,24.0,0.,24.0
1989-08-26T08:24:32.580 ,0,0,0.,24.0,0.,24.0,0.,24.0,0.,24.0
1989-08-26T08:24:56.580 ,0,1,0.,24.0,0.,24.0,0.,24.0,0.,24.0
1989-08-26T08:25:20.580 ,0,0,0.,24.0,0.,24.0,0.,24.0,0.,24.0
1989-08-26T08:25:44.580 ,1,1,0.,24.0,0.,24.0,0.,24.0,0.,24.0
1989-08-26T08:26:08.580 ,1,0,0.,24.0,0.,24.0,0.,24.0,0.,24.0
1989-08-26T08:26:32.580 ,2,1,0.,24.0,0.,24.0,0.,24.0,0.,24.0
1989-08-26T08:26:56.580 ,2,0,0.,24.0,0.,24.0,0.,24.0,0.,24.0
1989-08-26T08:27:20.580 ,3,1,0.,24.0,0.,24.0,0.,24.0,0.,24.0
1989-08-26T08:27:44.580 ,3,0,0.,24.0,0.,24.0,0.,24.0,0.,24.0
1989-08-26T08:28:08.580 ,4,1,0.,24.0,0.,24.0,0.,24.0,0.,24.0
1989-08-26T08:28:32.580 ,4,0,0.,24.0,0.,24.0,0.,24.0,0.,24.0
1989-08-26T08:28:56.580 ,5,1,0.,24.0,0.,24.0,0.,24.0,0.,24.0
1989-08-26T08:29:20.580 ,5,0,0.,24.0,0.,24.0,0.,24.0,0.,24.0
1989-08-26T08:29:44.580 ,6,1,0.,24.0,0.,24.0,0.,24.0,0.,24.0
1989-08-26T08:30:08.580 ,6,0,0.,24.0,0.,24.0,0.,24.0,0.,24.0
1989-08-26T08:30:32.580 ,7,1,0.,24.0,0.,24.0,0.,24.0,0.,24.0
1989-08-26T08:30:56.580 ,7,0,0.,24.0,0.,24.0,0.,24.0,0.,24.0
1989-08-26T08:31:20.580 ,7,1,0.,24.0,0.,24.0,0.,24.0,0.,24.0
1989-08-26T08:31:44.580 ,7,0,0.,24.0,0.,24.0,0.,24.0,0.,24.0
1989-08-26T08:32:08.580 ,6,1,0.,24.0,0.,24.0,0.,24.0,0.,24.0
1989-08-26T08:32:32.580 ,6,0,0.,24.0,0.,24.0,0.,24.0,0.,24.0
1989-08-26T08:32:56.580 ,5,1,0.,24.0,0.,24.0,0.,24.0,0.,24.0
1989-08-26T08:33:20.580 ,5,0,0.,24.0,0.,24.0,0.,24.0,0.,24.0
1989-08-26T08:33:44.580 ,4,1,0.,24.0,0.,24.0,0.,24.0,0.,24.0
1989-08-26T08:34:08.580 ,4,0,0.,24.0,0.,24.0,0.,24.0,0.,24.0
1989-08-26T08:34:32.580 ,3,1,0.,24.0,0.,24.0,0.,24.0,0.,24.0
1989-08-26T08:34:56.580 ,3,0,0.,24.0,0.,24.0,0.,24.0,0.,24.0
1989-08-26T08:35:20.580 ,2,1,0.,24.0,0.,24.0,0.,24.0,0.,24.0
1989-08-26T08:35:44.580 ,2,0,0.,24.0,0.,24.0,0.,24.0,0.,24.0
1989-08-26T08:36:08.580 ,1,1,0.,24.0,0.,24.0,0.,24.0,0.,24.0